When you browse on this site, cookies collect data to enhance your experience and personalize the content and advertising you see.
Visit our Privacy Policy to learn more. By continuing to use the site, you agree to this use of cookies and data.
  • In Czech Republic
  • List of Countries
  • For 7 days
  • Water Temperature
  • Satellite Maps
  • Weather Map
  • Weather Widgets
  • user-avatar
    Login

    Hourly Weather Yulara

    Today, 23 May, Thursday

    Time Temperature Precipitation Wind Pressure Humidity
    00:00 +21°C° 0 mm 4 mps 724 mmHg 36%
    01:00 +21°C° 0 mm 4 mps 724 mmHg 37%
    02:00 +20°C° 0 mm 4 mps 724 mmHg 38%
    03:00 +20°C° 0 mm 3 mps 723 mmHg 39%
    04:00 +19°C° 0 mm 3 mps 724 mmHg 40%
    05:00 +19°C° 0 mm 3 mps 724 mmHg 41%
    06:00 +18°C° 0 mm 3 mps 724 mmHg 42%
    07:00 +20°C° 0 mm 3 mps 724 mmHg 39%
    08:00 +21°C° 0 mm 3 mps 724 mmHg 36%
    09:00 +22°C° 0 mm 4 mps 725 mmHg 33%
    10:00 +25°C° 0 mm 4 mps 724 mmHg 30%
    11:00 +26°C° 0 mm 4 mps 724 mmHg 27%
    12:00 +27°C° 0 mm 4 mps 724 mmHg 24%
    13:00 +28°C° 0 mm 4 mps 724 mmHg 22%
    14:00 +28°C° 0 mm 4 mps 723 mmHg 21%
    15:00 +29°C° 0 mm 4 mps 722 mmHg 19%
    16:00 +27°C° 0 mm 3 mps 722 mmHg 21%
    17:00 +26°C° 0 mm 3 mps 722 mmHg 22%
    18:00 +25°C° 0 mm 3 mps 722 mmHg 24%
    19:00 +24°C° 0 mm 3 mps 723 mmHg 25%
    20:00 +22°C° 0 mm 3 mps 723 mmHg 26%
    21:00 +21°C° 0 mm 3 mps 723 mmHg 27%
    22:00 +21°C° 0 mm 3 mps 723 mmHg 28%
    23:00 +20°C° 0 mm 3 mps 723 mmHg 29%

    Tomorrow, 24 May, Friday

    Time Temperature Precipitation Wind Pressure Humidity
    00:00 +20°C° 0 mm 3 mps 723 mmHg 30%
    01:00 +19°C° 0 mm 3 mps 723 mmHg 32%
    02:00 +19°C° 0 mm 2 mps 723 mmHg 33%
    03:00 +18°C° 0 mm 2 mps 722 mmHg 35%
    04:00 +18°C° 0 mm 2 mps 722 mmHg 38%
    05:00 +17°C° 0 mm 2 mps 722 mmHg 40%
    06:00 +17°C° 0 mm 2 mps 722 mmHg 43%
    07:00 +18°C° 0 mm 2 mps 722 mmHg 40%
    08:00 +19°C° 0 mm 2 mps 722 mmHg 38%
    09:00 +21°C° 0 mm 2 mps 723 mmHg 35%
    10:00 +23°C° 0 mm 2 mps 722 mmHg 32%
    11:00 +25°C° 0 mm 2 mps 722 mmHg 29%
    12:00 +26°C° 0 mm 3 mps 722 mmHg 26%
    13:00 +27°C° 0 mm 2 mps 721 mmHg 24%
    14:00 +27°C° 0 mm 1 mps 721 mmHg 23%
    15:00 +28°C° 0 mm 1 mps 720 mmHg 21%
    16:00 +27°C° 0 mm 1 mps 720 mmHg 23%
    17:00 +25°C° 0 mm 1 mps 720 mmHg 25%
    18:00 +24°C° 0 mm 1 mps 720 mmHg 27%
    19:00 +24°C° 0 mm 2 mps 721 mmHg 28%
    20:00 +23°C° 0 mm 2 mps 721 mmHg 28%
    21:00 +23°C° 0 mm 2 mps 721 mmHg 29%
    22:00 +21°C° 0 mm 2 mps 721 mmHg 30%
    23:00 +20°C° 0 mm 2 mps 721 mmHg 31%

    Day after tomorrow, 25 May, Saturday

    Time Temperature Precipitation Wind Pressure Humidity
    00:00 +21°C° 0 mm 1 mps 721 mmHg 33%
    01:00 +20°C° 0 mm 1 mps 721 mmHg 35%
    02:00 +17°C° 0 mm 0 mps 720 mmHg 38%
    03:00 +16°C° 0 mm 0 mps 720 mmHg 40%
    04:00 +16°C° 0 mm 0 mps 720 mmHg 40%
    05:00 +18°C° 0 mm 1 mps 720 mmHg 40%
    06:00 +18°C° 0 mm 1 mps 720 mmHg 40%
    07:00 +19°C° 0 mm 1 mps 720 mmHg 37%
    08:00 +19°C° 0 mm 0 mps 721 mmHg 33%
    09:00 +21°C° 0 mm 0 mps 722 mmHg 29%
    10:00 +22°C° 0 mm 0 mps 721 mmHg 27%
    11:00 +23°C° 0 mm 0 mps 721 mmHg 26%
    12:00 +25°C° 0 mm 0 mps 721 mmHg 24%
    13:00 +27°C° 0 mm 1 mps 720 mmHg 23%
    14:00 +28°C° 0 mm 1 mps 720 mmHg 22%
    15:00 +28°C° 0 mm 2 mps 719 mmHg 22%
    16:00 +27°C° 0 mm 3 mps 719 mmHg 24%
    17:00 +26°C° 0 mm 3 mps 720 mmHg 27%
    18:00 +25°C° 0 mm 4 mps 720 mmHg 30%
    19:00 +23°C° 0 mm 4 mps 720 mmHg 34%
    20:00 +22°C° 0 mm 5 mps 721 mmHg 37%
    21:00 +21°C° 0 mm 6 mps 721 mmHg 41%
    22:00 +20°C° 0 mm 6 mps 721 mmHg 44%
    23:00 +20°C° 0 mm 6 mps 721 mmHg 46%

    26 May, Sunday

    Time Temperature Precipitation Wind Pressure Humidity
    00:00 +19°C° 0 mm 6 mps 722 mmHg 48%
    01:00 +17°C° 0 mm 5 mps 721 mmHg 50%
    02:00 +17°C° 0 mm 5 mps 721 mmHg 52%
    03:00 +16°C° 0 mm 5 mps 721 mmHg 54%
    04:00 +17°C° 0 mm 4 mps 721 mmHg 52%
    05:00 +15°C° 0 mm 4 mps 722 mmHg 50%
    06:00 +15°C° 0 mm 4 mps 722 mmHg 48%
    07:00 +15°C° 0 mm 5 mps 722 mmHg 45%
    08:00 +16°C° 0 mm 6 mps 723 mmHg 42%
    09:00 +17°C° 0 mm 6 mps 724 mmHg 38%
    10:00 +20°C° 0 mm 6 mps 723 mmHg 36%
    11:00 +21°C° 0 mm 5 mps 723 mmHg 34%
    12:00 +22°C° 0 mm 5 mps 723 mmHg 32%
    13:00 +23°C° 0 mm 4 mps 722 mmHg 32%
    14:00 +23°C° 0 mm 4 mps 722 mmHg 31%
    15:00 +25°C° 0 mm 4 mps 721 mmHg 31%
    16:00 +24°C° 0 mm 3 mps 721 mmHg 33%
    17:00 +22°C° 0 mm 3 mps 721 mmHg 34%
    18:00 +21°C° 0 mm 3 mps 722 mmHg 36%
    19:00 +20°C° 0 mm 4 mps 722 mmHg 37%
    20:00 +19°C° 0 mm 4 mps 723 mmHg 39%
    21:00 +18°C° 0 mm 4 mps 723 mmHg 40%
    22:00 +18°C° 0 mm 4 mps 723 mmHg 42%
    23:00 +17°C° 0 mm 4 mps 723 mmHg 44%

    27 May, Monday

    Time Temperature Precipitation Wind Pressure Humidity
    00:00 +15°C° 0 mm 4 mps 723 mmHg 46%
    01:00 +15°C° 0 mm 4 mps 723 mmHg 50%
    02:00 +14°C° 0 mm 4 mps 722 mmHg 53%
    03:00 +14°C° 0 mm 4 mps 722 mmHg 56%
    04:00 +13°C° 0 mm 4 mps 723 mmHg 59%
    05:00 +13°C° 0 mm 4 mps 723 mmHg 63%
    06:00 +12°C° 0 mm 4 mps 723 mmHg 66%
    07:00 +13°C° 0 mm 5 mps 723 mmHg 63%
    08:00 +14°C° 0 mm 5 mps 724 mmHg 60%
    09:00 +15°C° 0 mm 6 mps 724 mmHg 56%
    10:00 +17°C° 0 mm 5 mps 723 mmHg 51%
    11:00 +19°C° 0 mm 4 mps 723 mmHg 46%
    12:00 +21°C° 0 mm 4 mps 723 mmHg 40%
    13:00 +21°C° 0 mm 3 mps 722 mmHg 37%
    14:00 +22°C° 0 mm 3 mps 722 mmHg 35%
    15:00 +22°C° 0 mm 3 mps 721 mmHg 32%
    16:00 +22°C° 0 mm 3 mps 721 mmHg 33%
    17:00 +21°C° 0 mm 3 mps 721 mmHg 35%
    18:00 +20°C° 0 mm 3 mps 721 mmHg 36%
    19:00 +19°C° 0 mm 3 mps 722 mmHg 38%
    20:00 +18°C° 0 mm 3 mps 722 mmHg 39%
    21:00 +18°C° 0 mm 3 mps 723 mmHg 41%
    22:00 +17°C° 0 mm 3 mps 722 mmHg 43%
    23:00 +16°C° 0 mm 3 mps 722 mmHg 45%

    28 May, Tuesday

    Time Temperature Precipitation Wind Pressure Humidity
    00:00 +16°C° 0 mm 3 mps 722 mmHg 47%
    01:00 +14°C° 0 mm 3 mps 722 mmHg 49%
    02:00 +13°C° 0 mm 3 mps 722 mmHg 50%
    03:00 +13°C° 0 mm 3 mps 722 mmHg 52%
    04:00 +12°C° 0 mm 3 mps 722 mmHg 53%
    05:00 +12°C° 0 mm 3 mps 722 mmHg 54%
    06:00 +11°C° 0 mm 3 mps 722 mmHg 55%
    07:00 +13°C° 0 mm 3 mps 723 mmHg 51%
    08:00 +14°C° 0 mm 4 mps 723 mmHg 47%
    09:00 +15°C° 0 mm 4 mps 723 mmHg 43%
    10:00 +17°C° 0 mm 3 mps 723 mmHg 40%
    11:00 +19°C° 0 mm 3 mps 723 mmHg 37%
    12:00 +20°C° 0 mm 2 mps 722 mmHg 34%
    13:00 +21°C° 0 mm 3 mps 722 mmHg 31%
    14:00 +21°C° 0 mm 3 mps 722 mmHg 28%
    15:00 +22°C° 0 mm 3 mps 721 mmHg 26%
    16:00 +21°C° 0 mm 3 mps 721 mmHg 27%
    17:00 +20°C° 0 mm 3 mps 722 mmHg 29%
    18:00 +19°C° 0 mm 3 mps 722 mmHg 31%
    19:00 +18°C° 0 mm 4 mps 722 mmHg 32%
    20:00 +17°C° 0 mm 4 mps 723 mmHg 34%
    21:00 +15°C° 0 mm 4 mps 723 mmHg 35%
    22:00 +15°C° 0 mm 5 mps 723 mmHg 37%
    23:00 +14°C° 0 mm 5 mps 723 mmHg 39%
    Show more